{"data":{"norad_id":59741,"intl_designator":"2024-090M","name":"STARLINK-31818","alt_names":[],"object_type":"PAYLOAD","status":"ACTIVE","operator":null,"country":"US","launch_date":"2024-05-13","launch_site_code":"AFETR","launch_vehicle":null,"mission":null,"orbit_class":"UNKNOWN","rcs_meters":null,"size_class":null,"mass_kg":null,"dimensions":null,"purposes":["comms"],"wikipedia_slug":null,"has_3d_model":false,"image_url":null,"decayed_at":null,"tle_current":{"epoch":"2026-05-24T09:08:55.368096Z","epoch_age_seconds":124694,"freshness":"FRESH","line1":"1 59741U 24090M   26144.38119639  .00000681  00000+0  34284-4 0  9997","line2":"2 59741  43.0032 116.2463 0001360 289.4796  70.5908 15.27579216115010","mean_motion":15.27579216,"eccentricity":0.000136,"inclination_deg":43.0032,"raan_deg":116.2463,"arg_perigee_deg":289.4796,"mean_anomaly_deg":70.5908,"bstar":3.4284e-5,"rev_number":11501,"period_min":94.266797094207,"perigee_km":482.11832199037,"apogee_km":483.98456524703,"semimajor_km":6861.1884436187,"source":"CELESTRAK","updated_at":"2026-05-25T13:38:19.052670Z"}}}